QPF
0.00 0.00 0.00 0.00 0.00 0.00 0.00 0.00 0.00 0.00 0.00 0.00 0.00 0.00 0.00 0.00 0.00 0.00 0.00 0.00 0.00 0.00 0.00 0.00 0.00 0.00 0.00 0.00 0.00 0.00 0.00 0.00 0.00 0.00 0.00 0.00 0.00 0.00 0.00 0.00 0.00 0.00 0.00 0.00
0.00 0.00 0.00 0.00 0.00 0.00 0.00 0.00 0.00 0.00 0.00 0.00 0.00 0.00 0.00 0.00 0.00 0.00 0.00 0.00 0.00 0.00 0.00 0.00 0.00 0.00 0.00 0.00 0.00 0.00 0.00 0.00 0.00 0.00 0.00 0.00 0.00 0.00 0.00 0.00 0.00 0.00 0.00 0.00
0.00 0.00 0.00 0.00 0.00 0.00 0.00 0.00 0.00 0.00 0.00 0.00 0.00 0.00 0.00 0.00 0.00 0.00 0.00 0.00 0.00 0.00 0.00 0.00 0.00 0.00 0.00 0.00 0.00 0.00 0.00 0.00 0.00 0.00 0.00 0.00 0.00 0.00 0.00 0.00 0.00 0.00 0.00 0.00
0.00 0.00 0.00 0.00 0.00 0.00 0.00 0.00 0.00 0.00 0.00 0.00 0.00 0.00 0.00 0.00 0.00 0.00 0.00 0.00 0.00 0.00 0.00 0.00 0.00 0.00 0.00 0.00 0.00 0.00 0.00 0.00 0.00 0.00 0.00 0.00 0.00 0.00 0.00 0.00 0.00 0.00 0.00 0.00
0.00 0.00 0.00 0.00 0.00 0.00 0.00 0.00 0.00 0.00 0.00 0.00 0.00 0.00 0.00 0.00 0.00 0.00 0.00 0.00 0.00 0.00 0.00 0.00 0.00 0.00 0.00 0.00 0.00 0.00 0.00 0.00 0.00 0.00 0.00 0.00 0.00 0.00 0.00 0.00 0.00 0.00 0.00 0.00
0.00 0.00 0.00 0.00 0.00 0.00 0.00 0.00 0.00 0.00 0.00 0.00 0.00 0.00 0.00 0.00 0.00 0.00 0.00 0.00 0.00 0.00 0.00 0.00 0.00 0.00 0.00 0.00 0.00 0.00 0.00 0.00 0.00 0.00 0.00 0.00 0.00 0.00 0.00 0.00 0.00 0.00 0.00 0.00
0.00 0.00 0.00 0.00 0.00 0.00 0.00 0.00 0.00 0.00 0.00 0.00 0.00 0.00 0.00 0.00 0.00 0.00 0.00 0.00 0.00 0.00 0.00 0.00 0.00 0.00 0.00 0.00 0.00 0.00 0.00 0.00 0.00 0.00 0.00 0.00 0.00 0.00 0.00 0.00 0.00 0.00 0.00 0.00
0.00 0.00 0.00 0.00 0.00 0.00 0.00 0.00 0.00 0.00 0.00 0.00 0.00 0.00 0.00 0.00 0.00 0.00 0.00 0.00 0.00 0.00 0.00 0.00 0.00 0.00 0.00 0.00 0.00 0.00 0.00 0.00 0.00 0.00 0.00 0.00 0.00 0.00 0.00 0.00 0.00 0.00 0.00 0.00
0.00 0.00 0.00 0.00 0.00 0.00 0.00 0.00 0.00 0.00 0.00 0.00 0.00 0.00 0.00 0.00 0.00 0.00 0.00 0.00 0.00 0.00 0.00 0.00 0.00 0.00 0.00 0.00 0.00 0.00 0.00 0.00 0.00 0.00 0.00 0.00 0.00 0.00 0.00 0.00 0.00 0.00 0.00 0.00
0.00 0.00 0.00 0.00 0.00 0.00 0.00 0.00 0.00 0.00 0.00 0.00 0.00 0.00 0.00 0.00 0.00 0.00 0.00 0.00 0.00 0.00 0.00 0.00 0.00 0.00 0.00 0.00 0.00 0.00 0.00 0.00 0.00 0.00 0.00 0.00 0.00 0.00 0.00 0.00 0.00 0.00 0.00 0.00
0.00 0.00 0.00 0.00 0.00 0.00 0.00 0.00 0.00 0.00 0.00 0.00 0.00 0.00 0.00 0.00 0.00 0.00 0.00 0.00 0.00 0.00 0.00 0.00 0.00 0.00 0.00 0.00 0.00 0.00 0.00 0.00 0.00 0.00 0.00 0.00 0.00 0.00 0.00 0.00 0.00 0.00 0.00 0.00
0.00 0.00 0.00 0.00 0.00 0.00 0.00 0.00 0.00 0.00 0.00 0.00 0.00 0.00 0.00 0.00 0.00 0.00 0.00 0.00 0.00 0.00 0.00 0.00 0.00 0.00 0.00 0.00 0.00 0.00 0.00 0.00 0.00 0.00 0.00 0.00 0.00 0.00 0.00 0.00 0.00 0.00 0.00 0.01
0.00 0.00 0.00 0.00 0.00 0.00 0.00 0.00 0.00 0.00 0.00 0.00 0.00 0.00 0.00 0.00 0.00 0.00 0.00 0.00 0.00 0.00 0.00 0.00 0.00 0.00 0.00 0.00 0.00 0.00 0.00 0.00 0.00 0.00 0.00 0.00 0.00 0.00 0.00 0.00 0.00 0.00 0.00 0.01
0.00 0.00 0.00 0.00 0.00 0.00 0.00 0.00 0.00 0.00 0.00 0.00 0.00 0.00 0.00 0.00 0.00 0.00 0.00 0.00 0.00 0.00 0.00 0.00 0.00 0.00 0.00 0.00 0.00 0.00 0.00 0.00 0.00 0.00 0.00 0.00 0.00 0.00 0.00 0.00 0.00 0.00 0.00 0.00
0.00 0.00 0.00 0.00 0.00 0.00 0.00 0.00 0.00 0.00 0.00 0.00 0.00 0.00 0.00 0.00 0.00 0.00 0.00 0.00 0.00 0.00 0.00 0.00 0.00 0.00 0.00 0.00 0.00 0.00 0.00 0.00 0.00 0.00 0.00 0.00 0.00 0.00 0.00 0.00 0.00 0.00 0.00 0.00
0.00 0.00 0.00 0.00 0.00 0.00 0.00 0.00 0.00 0.00 0.00 0.00 0.00 0.00 0.00 0.00 0.00 0.00 0.00 0.00 0.00 0.00 0.00 0.00 0.00 0.00 0.00 0.00 0.00 0.00 0.00 0.00 0.00 0.00 0.00 0.00 0.00 0.00 0.00 0.00 0.00 0.00 0.00 0.00
0.00 0.00 0.00 0.00 0.00 0.00 0.00 0.00 0.00 0.00 0.00 0.00 0.00 0.00 0.00 0.00 0.00 0.00 0.00 0.00 0.00 0.00 0.00 0.00 0.00 0.00 0.00 0.00 0.00 0.00 0.00 0.00 0.00 0.00 0.00 0.00 0.00 0.00 0.00 0.00 0.00 0.00 0.00 0.00
0.00 0.00 0.00 0.00 0.00 0.00 0.00 0.00 0.00 0.00 0.00 0.00 0.00 0.00 0.00 0.00 0.00 0.00 0.00 0.00 0.00 0.00 0.00 0.00 0.00 0.00 0.00 0.00 0.00 0.00 0.00 0.00 0.00 0.00 0.00 0.00 0.00 0.00 0.00 0.00 0.00 0.00 0.00 0.00
0.00 0.00 0.00 0.00 0.00 0.00 0.00 0.00 0.00 0.00 0.00 0.00 0.00 0.00 0.00 0.00 0.00 0.00 0.00 0.00 0.00 0.00 0.00 0.00 0.00 0.00 0.00 0.00 0.00 0.00 0.00 0.00 0.00 0.00 0.00 0.00 0.00 0.00 0.00 0.00 0.00 0.00 0.00 0.00
0.00 0.00 0.00 0.00 0.00 0.00 0.00 0.00 0.00 0.00 0.00 0.00 0.00 0.00 0.00 0.00 0.00 0.00 0.00 0.00 0.00 0.00 0.00 0.00 0.00 0.00 0.00 0.00 0.00 0.00 0.00 0.00 0.00 0.00 0.00 0.00 0.00 0.00 0.00 0.00 0.00 0.00 0.00 0.00
0.00 0.00 0.00 0.00 0.01 0.00 0.00 0.00 0.00 0.02 0.02 0.00 0.00 0.00 0.00 0.00 0.00 0.00 0.00 0.00 0.00 0.00 0.00 0.00 0.00 0.00 0.00 0.00 0.00 0.00 0.00 0.00 0.00 0.00 0.00 0.00 0.00 0.00 0.00 0.00 0.00 0.00 0.00 0.00
0.00 0.00 0.00 0.00 0.00 0.01 0.00 0.00 0.00 0.01 0.01 0.00 0.00 0.00 0.00 0.00 0.00 0.00 0.00 0.00 0.00 0.00 0.00 0.00 0.00 0.00 0.00 0.00 0.00 0.00 0.00 0.00 0.00 0.00 0.00 0.00 0.00 0.00 0.00 0.00 0.00 0.00 0.00 0.00
0.00 0.00 0.00 0.01 0.00 0.00 0.00 0.01 0.01 0.00 0.00 0.00 0.00 0.00 0.00 0.00 0.00 0.00 0.00 0.00 0.00 0.00 0.00 0.00 0.00 0.00 0.00 0.00 0.00 0.00 0.00 0.00 0.00 0.00 0.00 0.00 0.00 0.00 0.00 0.00 0.00 0.00 0.00 0.00
0.00 0.00 0.00 0.01 0.00 0.00 0.01 0.01 0.01 0.00 0.00 0.00 0.00 0.00 0.00 0.00 0.00 0.00 0.00 0.00 0.00 0.00 0.00 0.00 0.00 0.00 0.00 0.00 0.01 0.02 0.01 0.00 0.00 0.00 0.00 0.00 0.00 0.00 0.00 0.00 0.00 0.00 0.00 0.00
0.00 0.00 0.01 0.01 0.00 0.00 0.01 0.01 0.00 0.00 0.00 0.00 0.00 0.00 0.00 0.00 0.00 0.00 0.00 0.00 0.00 0.00 0.00 0.00 0.00 0.00 0.00 0.00 0.00 0.00 0.00 0.00 0.00 0.00 0.00 0.00 0.00 0.00 0.00 0.00 0.00 0.00 0.00 0.00
0.00 0.00 0.01 0.01 0.01 0.01 0.02 0.01 0.01 0.01 0.01 0.00 0.00 0.00 0.00 0.00 0.00 0.00 0.00 0.00 0.00 0.00 0.00 0.00 0.00 0.00 0.00 0.00 0.00 0.00 0.00 0.00 0.00 0.00 0.00 0.00 0.00 0.00 0.00 0.00 0.00 0.00 0.00 0.00
MSLP
1008.20 1007.27 1007.46 1008.58 1009.00 1008.77 1008.27 1008.19 1007.72 1007.92 1009.02 1008.72 1008.14 1007.81 1008.43 1008.34 1008.14 1008.46 1008.57 1008.90 1009.17 1009.50 1009.86 1011.40 1012.54 1013.06 1013.42 1013.77 1013.89 1013.96 1015.00 1016.37 1016.64 1016.86 1017.20 1017.05 1017.19 1017.35 1017.43 1017.59 1018.00 1018.27 1018.11 1018.23
1008.49 1008.78 1009.99 1010.16 1009.99 1009.63 1009.27 1008.78 1008.41 1008.86 1009.39 1008.96 1008.08 1007.96 1009.03 1009.36 1009.58 1009.42 1009.58 1009.86 1010.26 1010.90 1011.70 1012.72 1013.32 1013.64 1013.85 1014.23 1014.32 1015.17 1016.17 1016.91 1017.27 1017.37 1017.87 1018.18 1018.24 1018.09 1018.09 1017.81 1018.27 1018.20 1018.32 1018.28
1008.83 1010.43 1011.07 1010.78 1010.24 1009.97 1009.68 1009.66 1009.82 1009.83 1009.47 1009.24 1008.73 1008.18 1009.23 1010.06 1010.37 1010.80 1011.13 1011.23 1011.28 1011.97 1012.90 1013.66 1014.06 1014.69 1015.32 1015.75 1015.99 1016.37 1017.13 1017.94 1018.29 1018.21 1018.26 1018.35 1018.17 1018.00 1017.94 1018.18 1018.27 1018.12 1018.47 1018.15
1010.48 1011.35 1011.24 1010.88 1010.84 1011.11 1010.48 1011.32 1011.26 1010.67 1010.03 1008.36 1008.72 1007.35 1008.81 1009.73 1010.78 1011.53 1012.17 1012.55 1012.86 1013.30 1013.80 1014.12 1014.80 1015.54 1016.38 1016.94 1017.29 1017.62 1018.11 1018.44 1018.78 1018.98 1018.87 1019.13 1019.02 1018.84 1019.02 1018.67 1018.47 1018.41 1018.33 1018.01
1011.37 1011.54 1011.53 1011.45 1012.04 1012.14 1011.61 1012.10 1011.64 1010.99 1010.12 1009.22 1008.64 1008.45 1009.33 1010.11 1010.86 1012.13 1013.25 1013.83 1014.18 1014.57 1014.82 1015.25 1015.86 1016.50 1017.18 1017.78 1018.16 1018.31 1018.49 1018.74 1018.91 1019.08 1019.51 1019.62 1019.56 1019.50 1019.36 1018.97 1018.39 1018.24 1017.98 1017.96
1011.87 1012.44 1012.49 1012.59 1012.61 1012.60 1012.38 1011.97 1011.57 1011.05 1010.14 1009.75 1009.29 1009.64 1009.20 1010.05 1011.61 1013.01 1014.14 1014.76 1015.04 1015.24 1015.76 1016.24 1016.72 1017.14 1017.78 1018.32 1018.58 1018.63 1018.53 1018.73 1019.05 1019.13 1019.05 1019.06 1019.23 1019.16 1019.20 1018.81 1018.43 1018.17 1018.29 1018.07
1011.98 1012.54 1012.95 1013.24 1012.19 1012.37 1011.81 1011.26 1010.85 1010.97 1010.70 1010.29 1010.83 1010.79 1010.86 1012.03 1012.97 1013.65 1014.63 1015.19 1015.77 1015.99 1016.22 1016.49 1016.82 1017.29 1018.06 1018.58 1018.75 1018.76 1018.66 1018.50 1018.53 1018.83 1018.98 1019.01 1019.07 1019.00 1018.87 1018.78 1018.69 1018.90 1018.60 1018.35
1011.85 1012.74 1013.29 1013.71 1013.46 1013.10 1012.59 1012.37 1012.40 1012.24 1012.05 1011.45 1011.47 1010.80 1011.31 1012.96 1014.06 1014.91 1015.49 1016.00 1016.25 1016.58 1016.93 1017.18 1017.50 1017.87 1018.14 1018.51 1018.53 1018.72 1018.63 1018.47 1018.17 1018.67 1018.69 1018.75 1018.97 1019.06 1019.13 1019.26 1019.60 1019.50 1019.03 1018.68
1013.02 1013.33 1014.22 1014.37 1014.01 1013.85 1012.96 1013.20 1014.16 1014.01 1014.68 1013.85 1011.78 1011.56 1012.37 1013.60 1014.36 1015.06 1015.70 1016.22 1016.41 1016.77 1017.18 1017.59 1017.74 1018.06 1018.56 1018.59 1018.42 1018.64 1018.56 1018.32 1018.31 1018.67 1018.70 1018.92 1019.21 1019.51 1019.66 1019.80 1019.66 1019.32 1019.07 1018.65
1014.54 1014.05 1014.54 1014.62 1014.61 1014.41 1014.05 1014.69 1014.34 1014.58 1014.97 1014.23 1012.37 1012.17 1011.73 1013.73 1014.15 1015.05 1015.38 1015.86 1016.23 1016.69 1016.96 1017.11 1017.37 1017.70 1018.18 1018.42 1018.49 1018.41 1018.59 1018.50 1018.57 1018.75 1019.06 1019.28 1019.70 1019.74 1019.76 1019.60 1019.40 1019.38 1019.12 1019.02
1015.40 1015.20 1015.13 1015.16 1014.70 1014.41 1014.40 1014.59 1015.46 1015.72 1016.28 1015.80 1014.84 1013.41 1013.90 1013.96 1014.89 1015.48 1015.94 1015.96 1016.12 1016.23 1016.73 1017.09 1017.54 1017.94 1018.12 1018.23 1018.43 1018.62 1018.66 1018.89 1019.15 1019.41 1019.89 1019.95 1019.72 1019.71 1019.74 1019.67 1019.57 1019.79 1020.03 1019.84
1016.78 1016.31 1015.68 1015.24 1015.95 1015.92 1015.61 1015.57 1016.11 1016.82 1017.22 1017.27 1017.01 1015.46 1014.64 1014.85 1015.16 1015.62 1015.82 1016.22 1016.63 1017.07 1017.34 1017.55 1017.86 1018.13 1018.36 1018.62 1018.72 1018.87 1019.39 1020.08 1020.08 1020.30 1020.17 1019.97 1019.79 1019.75 1019.61 1019.63 1020.20 1020.38 1020.44 1020.31
1017.42 1016.86 1016.15 1015.53 1016.29 1016.31 1016.07 1016.36 1017.04 1017.86 1018.43 1017.63 1016.97 1015.69 1015.14 1015.30 1015.81 1015.48 1016.03 1016.77 1017.25 1017.80 1018.30 1018.56 1018.76 1018.74 1018.89 1018.78 1019.35 1020.05 1020.39 1020.63 1020.56 1020.28 1019.92 1019.70 1019.81 1019.96 1019.96 1020.27 1020.56 1020.62 1020.28 1019.93
1018.72 1017.71 1017.48 1017.02 1016.61 1016.73 1016.64 1016.70 1016.95 1017.27 1017.77 1017.27 1016.65 1015.52 1014.80 1015.07 1015.42 1016.01 1016.74 1017.37 1018.34 1018.84 1019.10 1019.22 1019.47 1019.62 1019.69 1020.14 1020.26 1020.17 1020.12 1020.48 1020.64 1020.39 1020.18 1019.93 1020.20 1020.24 1020.17 1020.11 1020.10 1019.98 1019.74 1019.50
1018.65 1018.64 1018.52 1018.17 1017.82 1017.52 1017.19 1016.90 1016.75 1016.61 1016.81 1016.97 1016.61 1015.78 1015.59 1015.84 1016.62 1017.26 1017.64 1018.14 1018.79 1019.22 1019.49 1020.00 1020.20 1020.27 1020.43 1020.06 1019.86 1019.86 1020.00 1020.23 1020.24 1020.32 1019.99 1020.28 1020.29 1020.23 1019.92 1019.94 1019.93 1019.78 1019.57 1019.36
1019.40 1019.74 1020.11 1019.39 1018.66 1018.23 1017.53 1016.90 1016.46 1016.43 1016.58 1016.39 1016.25 1016.15 1016.40 1017.00 1017.39 1017.96 1018.86 1019.38 1019.62 1020.10 1020.84 1021.06 1020.81 1020.74 1020.44 1019.97 1019.79 1019.39 1019.41 1019.33 1019.63 1019.99 1019.82 1020.09 1020.21 1019.99 1019.93 1019.87 1019.69 1019.53 1019.35 1019.15
1020.17 1020.67 1021.02 1020.59 1020.08 1019.36 1018.06 1016.86 1016.32 1016.49 1016.68 1016.93 1016.64 1016.67 1017.04 1017.81 1018.82 1019.69 1020.44 1020.27 1020.68 1021.37 1021.52 1021.12 1020.96 1020.48 1020.15 1019.71 1019.48 1018.94 1018.71 1019.03 1019.35 1019.29 1019.33 1019.39 1019.68 1020.00 1019.84 1019.69 1019.44 1019.22 1019.18 1019.02
1021.26 1021.74 1022.65 1022.48 1021.53 1019.91 1017.96 1017.27 1016.97 1016.99 1017.13 1017.01 1016.96 1017.41 1018.24 1019.38 1019.88 1020.28 1021.11 1021.58 1021.74 1021.70 1021.55 1021.10 1020.63 1020.31 1020.02 1019.66 1019.15 1018.68 1018.61 1018.72 1018.45 1018.57 1018.82 1018.93 1019.60 1019.67 1019.54 1019.41 1019.13 1019.03 1018.89 1018.70
1021.63 1022.54 1023.53 1023.55 1022.18 1020.16 1018.33 1017.93 1017.76 1017.78 1017.79 1017.68 1018.30 1019.26 1020.03 1020.41 1020.45 1020.51 1021.40 1021.71 1021.92 1021.73 1021.16 1020.61 1020.38 1020.19 1019.91 1019.48 1019.01 1018.49 1018.28 1018.06 1017.94 1018.07 1018.51 1019.13 1019.36 1019.56 1019.28 1019.05 1018.89 1018.77 1018.51 1018.27
1022.64 1023.21 1023.54 1023.85 1022.94 1020.71 1018.79 1018.28 1018.81 1018.71 1018.47 1019.23 1020.11 1020.68 1021.35 1021.18 1020.83 1020.74 1021.52 1021.80 1021.74 1021.19 1020.68 1020.38 1020.33 1020.20 1019.79 1019.42 1019.10 1018.56 1018.00 1017.70 1017.88 1017.98 1018.39 1018.92 1019.03 1019.28 1019.05 1018.77 1018.61 1018.38 1018.10 1017.95
1023.11 1023.43 1023.42 1023.14 1022.53 1020.76 1019.13 1019.27 1019.47 1019.43 1020.22 1020.55 1021.33 1021.85 1021.88 1021.85 1021.95 1021.98 1022.00 1021.47 1021.18 1020.79 1020.39 1020.32 1020.10 1019.90 1019.70 1019.57 1019.19 1018.52 1017.80 1017.38 1017.75 1017.92 1018.44 1018.89 1018.91 1018.76 1018.55 1018.31 1018.21 1018.02 1017.86 1018.15
1021.27 1022.12 1022.42 1022.39 1021.66 1020.18 1019.51 1019.74 1020.50 1020.05 1020.35 1021.37 1022.19 1022.27 1022.32 1022.41 1022.16 1021.90 1021.64 1021.34 1020.91 1020.47 1020.22 1020.11 1020.02 1019.85 1019.94 1019.68 1019.29 1018.65 1017.73 1017.26 1018.03 1018.15 1018.46 1018.56 1018.52 1018.28 1018.14 1018.15 1017.94 1017.90 1017.98 1018.24
1019.80 1020.07 1020.41 1020.55 1019.55 1019.02 1019.46 1020.18 1020.30 1020.40 1021.32 1022.17 1022.58 1022.94 1022.81 1022.15 1021.91 1021.86 1021.55 1021.13 1020.86 1020.66 1020.28 1020.22 1020.10 1020.10 1019.94 1019.71 1019.31 1018.77 1018.55 1018.63 1018.91 1019.17 1019.06 1018.54 1018.17 1018.00 1017.98 1018.04 1017.92 1017.92 1018.02 1018.55
1018.96 1018.79 1019.19 1019.95 1019.30 1019.24 1019.61 1019.94 1020.25 1021.06 1021.65 1022.20 1022.38 1022.36 1022.03 1021.97 1021.91 1021.66 1021.34 1021.08 1020.88 1020.59 1020.47 1020.32 1020.32 1020.09 1019.85 1019.68 1019.45 1019.17 1019.54 1019.63 1019.27 1019.09 1018.78 1018.38 1018.18 1018.36 1018.42 1018.16 1017.98 1018.05 1018.71 1019.32
1018.70 1018.54 1018.63 1018.69 1018.84 1019.06 1019.61 1020.41 1020.77 1021.13 1021.61 1021.95 1022.01 1021.87 1022.09 1022.05 1021.77 1021.51 1021.22 1021.12 1020.92 1020.77 1020.56 1020.59 1020.10 1019.66 1019.44 1019.45 1019.41 1019.30 1019.62 1019.61 1019.56 1019.55 1019.02 1018.85 1018.68 1018.57 1018.44 1018.36 1018.35 1018.70 1019.24 1019.98
1018.36 1017.85 1018.23 1018.32 1019.00 1019.85 1020.48 1020.92 1021.02 1021.02 1021.21 1021.53 1021.74 1021.97 1021.99 1021.88 1021.53 1021.35 1021.22 1021.21 1021.05 1020.79 1020.66 1020.05 1019.74 1019.54 1019.39 1019.48 1019.55 1019.82 1019.87 1020.04 1020.07 1019.85 1019.41 1019.16 1019.27 1019.02 1019.04 1018.66 1018.73 1019.62 1019.72 1019.99
Thickness
5711 5708 5699 5695 5697 5700 5704 5700 5702 5708 5703 5699 5701 5705 5704 5712 5715 5710 5710 5708 5707 5704 5707 5695 5685 5680 5674 5669 5664 5660 5645 5634 5627 5620 5613 5610 5604 5598 5593 5587 5579 5572 5569 5563
5700 5685 5689 5694 5695 5694 5695 5694 5697 5700 5698 5699 5706 5702 5699 5699 5696 5701 5699 5696 5693 5689 5683 5676 5672 5669 5664 5660 5655 5645 5631 5622 5616 5611 5601 5594 5588 5583 5578 5575 5567 5562 5557 5553
5692 5683 5686 5687 5691 5688 5691 5686 5683 5681 5695 5699 5697 5693 5687 5689 5690 5688 5686 5686 5685 5676 5667 5661 5658 5652 5645 5638 5633 5627 5617 5607 5600 5596 5590 5584 5580 5576 5571 5564 5558 5553 5545 5542
5683 5684 5682 5685 5681 5681 5678 5680 5676 5677 5678 5682 5701 5690 5685 5684 5675 5674 5670 5668 5666 5662 5657 5653 5646 5638 5629 5622 5618 5611 5603 5596 5589 5581 5576 5568 5562 5556 5551 5549 5545 5540 5534 5530
5669 5674 5675 5673 5668 5673 5671 5673 5673 5677 5679 5685 5690 5685 5669 5680 5666 5659 5655 5652 5650 5647 5643 5637 5630 5623 5616 5609 5603 5598 5592 5585 5580 5572 5562 5555 5548 5544 5541 5538 5534 5530 5526 5519
5672 5678 5673 5668 5671 5670 5674 5672 5674 5678 5681 5658 5678 5673 5676 5669 5658 5647 5644 5639 5637 5635 5629 5624 5618 5612 5604 5598 5591 5588 5583 5575 5568 5561 5556 5549 5541 5536 5530 5527 5521 5516 5507 5501
5668 5663 5668 5666 5667 5672 5675 5671 5656 5648 5649 5649 5665 5657 5654 5657 5651 5644 5633 5629 5625 5622 5618 5614 5608 5601 5593 5586 5582 5577 5572 5567 5560 5552 5545 5538 5531 5525 5518 5510 5503 5493 5488 5482
5659 5643 5656 5659 5653 5649 5657 5658 5639 5625 5635 5648 5659 5649 5648 5649 5641 5632 5626 5619 5614 5610 5605 5601 5596 5590 5584 5579 5575 5568 5562 5555 5553 5543 5536 5528 5518 5509 5500 5491 5479 5471 5466 5460
5650 5646 5654 5652 5657 5654 5652 5641 5645 5627 5611 5614 5654 5654 5646 5637 5628 5624 5616 5610 5606 5601 5597 5590 5586 5581 5573 5569 5566 5558 5553 5548 5542 5531 5523 5512 5500 5489 5479 5470 5461 5454 5446 5439
5645 5640 5647 5649 5652 5652 5647 5645 5630 5630 5596 5603 5645 5643 5638 5617 5618 5614 5610 5605 5601 5596 5592 5588 5583 5577 5568 5563 5557 5551 5541 5534 5525 5514 5503 5492 5480 5470 5460 5451 5443 5433 5424 5413
5645 5641 5638 5642 5640 5638 5639 5632 5623 5623 5609 5596 5596 5622 5627 5617 5609 5603 5599 5599 5596 5593 5586 5580 5573 5566 5559 5554 5545 5536 5528 5518 5506 5494 5479 5469 5461 5450 5439 5429 5420 5406 5393 5382
5634 5632 5622 5634 5633 5634 5632 5623 5617 5593 5589 5590 5578 5591 5620 5611 5604 5597 5596 5591 5588 5582 5576 5570 5562 5553 5545 5537 5531 5522 5508 5491 5481 5468 5459 5450 5441 5430 5420 5409 5392 5380 5368 5358
5632 5627 5620 5628 5622 5625 5618 5615 5606 5593 5579 5576 5569 5588 5610 5604 5593 5597 5586 5581 5573 5564 5557 5552 5546 5540 5532 5525 5511 5496 5483 5471 5461 5452 5444 5434 5423 5409 5398 5385 5370 5358 5350 5339
5619 5624 5614 5608 5614 5614 5601 5603 5602 5593 5573 5578 5579 5590 5605 5599 5592 5587 5577 5569 5557 5550 5544 5538 5529 5521 5511 5498 5487 5478 5469 5455 5443 5434 5425 5415 5402 5389 5376 5367 5354 5340 5329 5318
5621 5606 5611 5613 5614 5608 5602 5597 5596 5592 5588 5572 5580 5584 5588 5587 5576 5569 5566 5559 5549 5540 5533 5522 5513 5505 5492 5485 5475 5464 5452 5439 5428 5415 5407 5393 5381 5370 5360 5346 5334 5322 5312 5303
5612 5599 5591 5593 5606 5601 5594 5597 5598 5593 5586 5585 5583 5578 5583 5576 5571 5563 5549 5542 5535 5526 5512 5501 5495 5484 5476 5469 5459 5449 5437 5426 5411 5397 5387 5375 5362 5351 5338 5327 5317 5306 5297 5290
5597 5590 5583 5578 5585 5578 5570 5589 5595 5588 5584 5575 5565 5573 5574 5561 5546 5534 5525 5527 5517 5502 5492 5488 5478 5471 5462 5453 5443 5435 5424 5407 5395 5384 5371 5357 5344 5330 5321 5310 5302 5294 5286 5280
5578 5576 5559 5556 5555 5562 5587 5596 5591 5580 5575 5578 5576 5569 5559 5541 5535 5526 5514 5503 5495 5487 5479 5473 5466 5456 5446 5438 5431 5421 5407 5392 5381 5369 5356 5344 5327 5315 5306 5297 5290 5283 5277 5272
5583 5566 5544 5543 5556 5571 5581 5577 5571 5563 5561 5570 5559 5547 5537 5530 5525 5517 5503 5493 5481 5473 5468 5462 5452 5442 5433 5423 5414 5404 5392 5382 5371 5358 5344 5326 5313 5300 5294 5288 5281 5276 5271 5266
5564 5557 5552 5536 5529 5538 5563 5571 5564 5559 5547 5548 5538 5527 5512 5515 5508 5509 5494 5481 5470 5464 5456 5446 5434 5423 5414 5405 5395 5387 5378 5368 5355 5345 5331 5315 5302 5289 5283 5279 5274 5270 5266 5259
5539 5534 5538 5533 5526 5543 5562 5556 5551 5531 5532 5529 5517 5506 5503 5496 5489 5482 5472 5466 5458 5449 5440 5429 5420 5410 5399 5387 5377 5370 5365 5355 5337 5325 5312 5297 5288 5282 5277 5275 5270 5266 5260 5249
5552 5538 5526 5528 5521 5523 5551 5541 5523 5532 5529 5514 5501 5495 5490 5481 5475 5468 5460 5453 5446 5438 5428 5417 5404 5395 5381 5370 5360 5354 5350 5340 5321 5307 5296 5286 5281 5278 5275 5269 5266 5259 5251 5241
5559 5559 5550 5542 5546 5553 5540 5521 5524 5522 5508 5495 5487 5475 5470 5470 5463 5454 5446 5439 5430 5420 5411 5400 5388 5376 5366 5353 5343 5335 5327 5313 5300 5286 5279 5278 5277 5275 5270 5264 5260 5253 5246 5233
5565 5569 5549 5536 5548 5541 5534 5526 5519 5506 5496 5486 5478 5472 5468 5459 5449 5442 5434 5425 5416 5407 5394 5383 5370 5359 5348 5337 5327 5315 5303 5291 5283 5276 5273 5272 5271 5266 5262 5259 5254 5246 5234 5220
5557 5555 5543 5539 5541 5535 5527 5510 5503 5496 5487 5477 5471 5465 5453 5444 5437 5428 5419 5408 5398 5387 5378 5365 5355 5345 5335 5323 5312 5301 5288 5278 5271 5265 5267 5265 5263 5261 5258 5252 5246 5236 5225 5210
5552 5546 5533 5529 5530 5515 5505 5496 5491 5483 5476 5467 5459 5448 5439 5430 5423 5414 5404 5392 5381 5371 5360 5354 5343 5332 5323 5311 5299 5286 5276 5268 5262 5261 5262 5259 5254 5253 5248 5246 5238 5223 5215 5205